This is the latest recevied weather packets stored in our database for station/object SP4LIN-15. If no packets are shown the sender has not sent any weather packets the latest 1 day(s).
| Time | Temp. | Humidity | Pressure | Rain* | Wind** | Luminosity | Snow |
|---|---|---|---|---|---|---|---|
| 1778081941 | 14.44° C | 70% | 998.2 hPa | 0 mm | - | - | - |
| 1778066642 | 16.67° C | 68% | 997.5 hPa | 0 mm | - | - | - |
| 1778063942 | 20.56° C | 61% | 997.7 hPa | 0 mm | - | - | - |
| 1778062142 | 16.67° C | 72% | 998.1 hPa | 0 mm | - | - | - |
| 1778061242 | 15.56° C | 75% | 998 hPa | 0 mm | - | - | - |
| 1778060342 | 13.89° C | 76% | 997.8 hPa | 0 mm | - | - | - |
| 1778059442 | 13.89° C | 79% | 997.9 hPa | 0 mm | - | - | - |
| 1778058542 | 12.78° C | 80% | 997.8 hPa | 0 mm | - | - | - |
| 1778057642 | 12.22° C | 77% | 998.1 hPa | 0 mm | - | - | - |
| 1778056742 | 13.89° C | 73% | 998.1 hPa | 0 mm | - | - | - |
| 1778055842 | 14.44° C | 72% | 998.2 hPa | 0 mm | - | - | - |
| 1778054942 | 13.89° C | 71% | 998.2 hPa | 0 mm | - | - | - |
| 1778054042 | 15° C | 68% | 998.2 hPa | 0 mm | - | - | - |
| 1778053142 | 15° C | 68% | 998.4 hPa | 0 mm | - | - | - |
| 1778052242 | 16.67° C | 64% | 998.5 hPa | 0 mm | - | - | - |
| 1778050442 | 15.56° C | 70% | 999 hPa | 0 mm | - | - | - |
| 1778048642 | 15° C | 70% | 998.8 hPa | 0 mm | - | - | - |
| 1778046842 | 11.67° C | 82% | 999.6 hPa | 0 mm | - | - | - |
| 1778045942 | 9.44° C | 84% | 999.8 hPa | 0 mm | - | - | - |
| 1778044142 | 8.33° C | 86% | 999.9 hPa | 0 mm | - | - | - |
| 1778043242 | 8.33° C | 88% | 1000.1 hPa | 0.51 mm | - | - | - |
| 1778040542 | 7.22° C | 88% | 1000.2 hPa | 0 mm | - | - | - |
| 1778036042 | 7.78° C | 88% | 1000.4 hPa | 0 mm | - | - | - |
| 1778030643 | 8.33° C | 88% | 1001.6 hPa | 0 mm | - | - | - |
| 1778029743 | 8.33° C | 88% | 1001.6 hPa | 0 mm | - | - | - |
* Rain latest hour (hover to see other rain measurements)
** Current wind speed in m/s (hover to see current wind gust speed)